Wind_Speed
34 28 24 27 28 24 21 21 19 19 18 18 16 14 14 14 14 15 15 15 15 15 16 17 17 15 15 15 15 15 15 15
35 29 26 27 30 27 26 23 24 22 20 19 17 16 16 15 15 17 18 18 19 19 19 20 20 19 17 16 16 17 18 18
30 29 29 29 30 31 29 27 25 27 24 21 19 17 16 16 16 17 20 20 21 22 22 22 22 21 20 18 18 19 20 21
31 31 30 31 31 33 33 30 31 28 25 23 19 18 16 17 18 17 19 20 22 23 23 22 22 21 20 20 20 21 23 24
30 31 32 32 33 36 39 35 37 27 31 25 19 19 17 18 19 19 19 21 22 23 22 21 21 22 22 22 23 23 24 25
27 30 33 34 36 36 41 40 34 28 22 25 21 21 19 18 18 21 21 22 23 23 22 22 22 23 24 24 25 24 25 26
27 30 32 33 36 36 39 39 33 33 28 25 26 22 21 20 19 20 22 23 24 24 23 22 22 23 25 25 24 25 26 26
27 28 32 35 37 35 37 39 37 37 37 37 32 21 22 22 22 21 23 23 24 24 24 24 23 24 25 27 26 25 26 27
29 29 29 33 35 37 38 39 41 44 40 42 38 28 25 24 24 24 22 23 24 25 25 26 26 25 27 27 26 26 28 29
31 35 32 32 33 35 41 42 43 43 44 49 46 29 26 26 26 25 23 24 24 24 25 26 27 27 26 26 26 26 30 34
37 37 36 32 34 35 38 40 41 43 41 47 41 31 26 26 27 26 25 25 24 25 25 26 26 26 27 25 24 26 30 34
43 41 39 36 35 35 35 36 37 39 41 39 42 36 28 28 28 26 27 26 25 24 25 26 25 26 26 27 28 28 33 38
44 41 41 41 35 40 36 37 35 37 35 38 33 36 27 24 26 29 29 27 25 24 23 24 24 25 27 30 31 39 40 40
47 43 42 41 35 42 40 37 36 38 38 40 34 28 28 22 30 32 30 29 26 24 21 22 26 28 31 34 36 36 37 41
44 43 43 42 41 43 42 39 36 40 40 42 39 32 31 28 33 31 29 28 24 21 20 23 25 28 32 33 35 43 35 45
45 45 43 42 43 44 44 40 36 37 36 45 42 35 30 33 32 32 29 26 25 24 22 24 27 28 33 29 39 43 41 52
44 43 43 41 44 45 45 42 40 37 40 37 33 34 32 32 28 30 29 25 31 21 20 28 30 30 33 32 45 44 47 51
48 44 44 42 45 47 44 45 42 36 32 26 30 31 31 34 32 25 23 23 18 26 29 30 32 33 37 40 43 47 52 53
53 50 42 42 46 49 48 47 42 36 39 38 35 31 30 32 30 25 21 21 26 28 30 32 35 36 40 42 45 48 45 53
Wind_Direction
285 293 301 296 298 298 295 283 279 273 272 272 277 272 268 263 260 256 250 249 251 251 259 268 272 274 287 279 273 278 287 296
285 291 291 290 291 292 291 288 283 272 263 264 271 270 272 272 264 255 251 249 253 255 257 263 270 274 277 274 275 278 282 294
276 277 281 284 284 288 292 289 291 278 264 262 265 270 274 279 267 257 254 253 254 258 262 264 267 272 277 271 272 276 283 290
274 271 274 277 280 284 280 280 283 291 258 256 262 270 270 278 278 262 259 257 257 259 260 265 268 272 270 265 270 274 285 294
283 279 276 275 272 274 278 282 279 284 264 252 256 266 270 273 279 272 264 264 260 259 263 267 271 271 265 269 273 278 286 292
293 285 281 277 275 274 276 283 281 285 299 262 255 260 269 273 277 278 271 268 266 263 265 270 271 271 270 274 277 284 292 299
296 288 280 273 272 275 277 279 281 285 289 273 253 253 264 270 275 277 276 273 271 268 268 269 270 270 272 274 278 287 292 300
305 295 290 283 277 274 274 276 276 272 272 269 267 253 259 266 275 278 278 277 275 274 272 270 269 274 277 280 287 291 296 299
323 316 309 293 285 281 279 273 272 273 274 270 267 243 256 262 269 274 279 277 275 275 274 273 273 275 279 287 291 297 298 298
327 329 325 317 299 287 281 281 279 275 273 267 268 238 250 256 265 272 276 275 273 272 271 271 273 278 284 292 299 300 302 304
319 324 328 318 313 298 287 281 276 273 273 270 261 236 245 256 264 271 276 275 273 272 273 274 277 284 289 292 293 304 307 306
315 319 328 320 309 309 296 288 277 271 276 281 271 235 241 253 264 272 276 274 273 271 271 274 281 287 290 291 292 303 313 311
311 316 318 323 307 307 301 292 278 271 274 280 246 249 243 257 268 271 275 273 272 267 272 277 280 287 292 308 291 294 301 306
306 311 311 314 302 299 300 288 282 268 272 270 267 255 250 258 266 268 270 269 270 272 276 279 280 286 301 288 301 303 300 310
301 299 302 308 304 296 300 289 284 268 277 262 265 257 248 251 257 266 269 267 267 268 273 280 287 291 299 299 301 304 290 300
295 296 297 303 302 300 299 294 284 278 275 257 251 249 252 265 259 259 259 260 260 266 275 282 289 293 296 292 297 300 290 300
288 287 291 298 297 299 297 297 290 282 268 268 257 252 257 258 276 275 253 257 255 273 276 281 284 289 291 291 289 295 298 299
279 283 287 289 292 293 295 294 288 278 271 265 250 257 253 259 262 261 261 273 282 277 272 284 291 292 294 294 297 299 299 297
274 278 280 283 290 292 292 293 288 272 270 271 254 251 252 257 259 261 262 273 275 277 283 284 288 290 292 293 295 293 292 296
Height
5838 5839 5839 5836 5835 5835 5833 5832 5830 5829 5829 5829 5828 5827 5825 5824 5823 5823 5823 5823 5823 5823 5823 5824 5824 5822 5821 5820 5819 5818 5817 5815
5833 5835 5834 5831 5830 5830 5829 5827 5826 5825 5824 5824 5824 5823 5822 5820 5819 5818 5818 5818 5818 5818 5818 5818 5818 5817 5816 5815 5815 5814 5812 5811
5830 5828 5827 5826 5825 5825 5825 5823 5822 5821 5820 5819 5819 5818 5817 5817 5815 5813 5814 5813 5813 5813 5813 5812 5812 5812 5811 5810 5809 5808 5807 5805
5821 5821 5822 5820 5820 5819 5818 5817 5815 5815 5815 5814 5814 5813 5812 5812 5811 5809 5808 5808 5808 5807 5807 5807 5806 5806 5805 5804 5803 5802 5802 5801
5816 5815 5816 5815 5814 5812 5810 5811 5808 5809 5808 5809 5808 5808 5807 5806 5806 5805 5803 5803 5802 5802 5802 5801 5801 5800 5799 5799 5798 5797 5795 5794
5812 5810 5809 5810 5807 5807 5803 5803 5803 5802 5801 5803 5802 5802 5802 5801 5800 5800 5798 5797 5797 5797 5797 5796 5796 5795 5795 5794 5792 5791 5789 5788
5808 5805 5804 5803 5801 5800 5797 5795 5798 5796 5796 5796 5795 5796 5797 5796 5794 5793 5793 5792 5792 5792 5792 5791 5790 5790 5789 5787 5785 5784 5783 5781
5803 5801 5799 5796 5794 5793 5791 5788 5790 5789 5788 5788 5789 5788 5790 5789 5788 5787 5787 5786 5786 5786 5786 5786 5785 5784 5783 5782 5780 5778 5777 5776
5798 5796 5795 5791 5787 5785 5783 5782 5781 5780 5780 5779 5778 5779 5782 5782 5781 5780 5780 5780 5780 5780 5780 5779 5778 5778 5777 5776 5774 5773 5772 5769
5794 5791 5789 5786 5783 5780 5775 5773 5772 5771 5770 5768 5769 5771 5773 5774 5774 5773 5773 5773 5773 5773 5772 5772 5772 5772 5771 5770 5769 5766 5764 5762
5788 5785 5781 5780 5776 5772 5769 5765 5762 5759 5759 5758 5760 5761 5764 5765 5766 5765 5765 5766 5766 5766 5766 5766 5766 5766 5765 5764 5761 5759 5756 5753
5779 5776 5774 5769 5767 5765 5761 5758 5754 5752 5748 5749 5749 5751 5754 5756 5758 5757 5758 5758 5759 5759 5758 5759 5759 5759 5758 5756 5754 5751 5748 5745
5773 5770 5766 5761 5758 5755 5753 5749 5746 5744 5742 5742 5741 5741 5746 5748 5749 5749 5749 5751 5751 5751 5751 5752 5751 5751 5749 5747 5744 5742 5739 5735
5765 5763 5757 5754 5749 5746 5744 5741 5738 5736 5735 5735 5734 5735 5737 5739 5740 5740 5741 5742 5743 5743 5744 5744 5743 5742 5741 5738 5736 5733 5728 5725
5756 5753 5747 5744 5742 5737 5734 5732 5728 5726 5725 5726 5727 5727 5728 5729 5731 5732 5733 5735 5735 5734 5735 5734 5734 5732 5731 5729 5725 5723 5718 5714
5746 5741 5737 5734 5732 5729 5725 5723 5722 5719 5717 5716 5717 5718 5718 5720 5722 5724 5724 5726 5726 5725 5726 5726 5725 5723 5721 5720 5717 5714 5710 5706
5736 5731 5725 5725 5722 5719 5716 5714 5713 5711 5710 5709 5708 5710 5710 5712 5714 5715 5714 5717 5717 5716 5717 5717 5717 5715 5713 5710 5709 5704 5700 5695
5722 5719 5717 5716 5712 5711 5708 5705 5704 5703 5703 5701 5702 5704 5705 5706 5706 5706 5708 5707 5707 5709 5708 5707 5706 5705 5703 5700 5696 5692 5687 5681
5711 5708 5707 5706 5703 5701 5698 5695 5696 5694 5694 5693 5695 5696 5697 5698 5698 5698 5698 5699 5700 5699 5699 5698 5697 5696 5692 5689 5686 5680 5675 5670